Colstrip, MT (59323)

6:21 AM MDT on September 05, 2015 (GMT -0600)
Water Plant | | Change Station
CLOSE
Current Station
Personal Weather Station
Location: Colstrip, MT
Elevation: 3255 ft
Nearby Weather Stations

Elev 3255 ft 45.89 °N, 106.63 °W | Updated 1 minute ago

Mostly Cloudy
Mostly Cloudy
56.6 °F
Feels Like 56.6 °F
N
2.0
Wind Variable Wind from West
Gusts 8.0 mph

Today
High -- | Low -- °F
--% Chance of Precip.
Yesterday
High -- | Low -- °F
Precip. -- in
6:32 AM 7:37 PM
Waning Gibbous, 49% visible
Pressure 29.80 in
Visibility 10.0 miles
Clouds Overcast 900 ft
Dew Point 52 °F
Humidity 83%
Rainfall 0.00 in
Snow Depth Not available.
UV 0 out of 12
Pollen 7.80 out of 12
Air Quality Not available.
Flu Activity Not available.
METAR KMLS 051153Z AUTO 03012KT 10SM OVC009 16/14 A2984 RMK AO2 CIG 007V010 SLP089 70001 T01560139 10178 20156 55001
Pressure 29.80 in
Visibility 10.0 miles
Clouds Overcast 900 ft
Dew Point 52 °F
Humidity 83%
Rainfall 0.00 in
Snow Depth Not available.
UV 0 out of 12
Pollen 7.80 out of 12
Air Quality Not available.
Flu Activity Not available.
METAR KMLS 051153Z AUTO 03012KT 10SM OVC009 16/14 A2984 RMK AO2 CIG 007V010 SLP089 70001 T01560139 10178 20156 55001

10-Day Weather Forecast

×

Almanac

Astronomy

Sep. 05, 2015 Rise Set
Actual Time
Civil Twilight
Nautical Twilight
Astronomical Twilight
Moon
Length of Visible Light
Length of Day
Tomorrow will be .
, % of the Moon is Illuminated

Today's Extremes

State Highs State Lows

Community

WunderPhotos

Upload Photos

1,852,455 photos uploaded!

WunderBlogs® & News

Nearby

Air Quality

  Air Quality AQ Index Pollutant
Not available.

Snow Depth

Station Depth Elevation

Earthquake Activity

City Distance Mag. Time & Date
Minimum magnitude displayed is 2.5.

Coastal Water Temperatures

Place Temperature

Stations

Nearby Weather Stations

Station Location Temp. Windchill Dew Point Humidity Wind Precip. Elev Updated Type